When you browse on this site, cookies collect data to enhance your experience and personalize the content and advertising you see.
Visit our Privacy Policy to learn more. By continuing to use the site, you agree to this use of cookies and data.
  • In Austria
  • List of Countries
  • For 7 days
  • Water Temperature
  • Satellite Maps
  • Weather Map
  • News
  • Weather Widgets
  • user-avatar
    Login

    Hourly Weather Borovaya

    Today, 26 May, Sunday

    Time Temperature Precipitation Wind Pressure Humidity
    00:00 +14°C° 0 mm 3 mps 743 mmHg 90%
    01:00 +14°C° 0 mm 3 mps 743 mmHg 91%
    02:00 +13°C° 0 mm 3 mps 743 mmHg 92%
    03:00 +13°C° 0 mm 3 mps 744 mmHg 92%
    04:00 +14°C° 0 mm 2 mps 744 mmHg 92%
    05:00 +14°C° 0 mm 2 mps 744 mmHg 92%
    06:00 +14°C° 0 mm 3 mps 744 mmHg 86%
    07:00 +17°C° 0 mm 3 mps 745 mmHg 81%
    08:00 +18°C° 0 mm 3 mps 745 mmHg 76%
    09:00 +19°C° 0.1 mm 4 mps 745 mmHg 71%
    10:00 +20°C° 0.1 mm 4 mps 745 mmHg 66%
    11:00 +21°C° 0.1 mm 5 mps 745 mmHg 62%
    12:00 +21°C° 0 mm 5 mps 745 mmHg 59%
    13:00 +21°C° 0 mm 6 mps 745 mmHg 56%
    14:00 +21°C° 0 mm 6 mps 745 mmHg 53%
    15:00 +21°C° 0 mm 6 mps 745 mmHg 54%
    16:00 +20°C° 0 mm 5 mps 745 mmHg 55%
    17:00 +20°C° 0 mm 5 mps 745 mmHg 57%
    18:00 +18°C° 0 mm 4 mps 745 mmHg 62%
    19:00 +17°C° 0 mm 4 mps 745 mmHg 67%
    20:00 +14°C° 0 mm 3 mps 746 mmHg 73%
    21:00 +13°C° 0 mm 3 mps 746 mmHg 76%
    22:00 +13°C° 0 mm 2 mps 746 mmHg 80%
    23:00 +13°C° 0 mm 2 mps 747 mmHg 84%

    Tomorrow, 27 May, Monday

    Time Temperature Precipitation Wind Pressure Humidity
    00:00 +12°C° 0 mm 2 mps 747 mmHg 87%
    01:00 +12°C° 0 mm 2 mps 747 mmHg 89%
    02:00 +10°C° 0 mm 2 mps 748 mmHg 92%
    03:00 +10°C° 0 mm 2 mps 748 mmHg 92%
    04:00 +10°C° 0 mm 2 mps 748 mmHg 92%
    05:00 +10°C° 0 mm 2 mps 748 mmHg 91%
    06:00 +13°C° 0 mm 2 mps 748 mmHg 84%
    07:00 +14°C° 0 mm 3 mps 748 mmHg 76%
    08:00 +17°C° 0 mm 3 mps 749 mmHg 68%
    09:00 +19°C° 0 mm 4 mps 749 mmHg 65%
    10:00 +20°C° 0 mm 4 mps 749 mmHg 61%
    11:00 +22°C° 0 mm 4 mps 749 mmHg 57%
    12:00 +23°C° 0 mm 4 mps 748 mmHg 55%
    13:00 +25°C° 0 mm 4 mps 748 mmHg 52%
    14:00 +26°C° 0 mm 4 mps 748 mmHg 50%
    15:00 +26°C° 0 mm 4 mps 748 mmHg 53%
    16:00 +26°C° 0 mm 4 mps 748 mmHg 56%
    17:00 +26°C° 0 mm 3 mps 747 mmHg 59%
    18:00 +24°C° 0.1 mm 3 mps 747 mmHg 66%
    19:00 +21°C° 0.1 mm 3 mps 747 mmHg 73%
    20:00 +20°C° 0.1 mm 3 mps 748 mmHg 81%
    21:00 +19°C° 0 mm 3 mps 748 mmHg 84%
    22:00 +18°C° 0 mm 3 mps 748 mmHg 87%
    23:00 +18°C° 0 mm 3 mps 748 mmHg 90%

    Day after tomorrow, 28 May, Tuesday

    Time Temperature Precipitation Wind Pressure Humidity
    00:00 +17°C° 0 mm 3 mps 748 mmHg 92%
    01:00 +17°C° 0 mm 3 mps 748 mmHg 93%
    02:00 +17°C° 0 mm 3 mps 748 mmHg 94%
    03:00 +17°C° 0 mm 3 mps 748 mmHg 94%
    04:00 +17°C° 0 mm 3 mps 748 mmHg 94%
    05:00 +17°C° 0 mm 3 mps 748 mmHg 94%
    06:00 +19°C° 0.2 mm 4 mps 748 mmHg 88%
    07:00 +20°C° 0.2 mm 4 mps 748 mmHg 83%
    08:00 +22°C° 0.2 mm 5 mps 748 mmHg 78%
    09:00 +23°C° 0 mm 6 mps 748 mmHg 69%
    10:00 +26°C° 0 mm 6 mps 748 mmHg 60%
    11:00 +27°C° 0 mm 7 mps 748 mmHg 51%
    12:00 +27°C° 0 mm 7 mps 748 mmHg 52%
    13:00 +26°C° 0 mm 7 mps 748 mmHg 53%
    14:00 +26°C° 0 mm 7 mps 747 mmHg 55%
    15:00 +26°C° 0 mm 7 mps 747 mmHg 56%
    16:00 +26°C° 0 mm 6 mps 747 mmHg 57%
    17:00 +27°C° 0 mm 6 mps 747 mmHg 59%
    18:00 +25°C° 0 mm 5 mps 747 mmHg 64%
    19:00 +23°C° 0 mm 5 mps 747 mmHg 69%
    20:00 +22°C° 0 mm 4 mps 747 mmHg 74%
    21:00 +21°C° 0 mm 4 mps 747 mmHg 76%
    22:00 +21°C° 0 mm 4 mps 747 mmHg 79%
    23:00 +20°C° 0 mm 4 mps 748 mmHg 81%

    29 May, Wednesday

    Time Temperature Precipitation Wind Pressure Humidity
    00:00 +20°C° 0 mm 5 mps 748 mmHg 80%
    01:00 +19°C° 0 mm 5 mps 748 mmHg 78%
    02:00 +19°C° 0 mm 5 mps 748 mmHg 76%
    03:00 +19°C° 0 mm 5 mps 748 mmHg 76%
    04:00 +17°C° 0 mm 6 mps 747 mmHg 76%
    05:00 +17°C° 0 mm 6 mps 747 mmHg 75%
    06:00 +19°C° 0 mm 6 mps 747 mmHg 72%
    07:00 +20°C° 0 mm 7 mps 748 mmHg 69%
    08:00 +21°C° 0 mm 7 mps 748 mmHg 66%
    09:00 +22°C° 0 mm 7 mps 748 mmHg 64%
    10:00 +23°C° 0 mm 7 mps 748 mmHg 62%
    11:00 +24°C° 0 mm 7 mps 748 mmHg 60%
    12:00 +24°C° 0 mm 7 mps 748 mmHg 61%
    13:00 +24°C° 0 mm 7 mps 748 mmHg 62%
    14:00 +24°C° 0 mm 7 mps 748 mmHg 63%
    15:00 +24°C° 0 mm 7 mps 747 mmHg 63%
    16:00 +26°C° 0 mm 7 mps 747 mmHg 63%
    17:00 +26°C° 0 mm 7 mps 747 mmHg 63%
    18:00 +24°C° 0.2 mm 6 mps 747 mmHg 67%
    19:00 +23°C° 0.2 mm 5 mps 747 mmHg 71%
    20:00 +22°C° 0.2 mm 4 mps 747 mmHg 74%
    21:00 +21°C° 0.6 mm 4 mps 747 mmHg 77%
    22:00 +21°C° 0.6 mm 4 mps 747 mmHg 79%
    23:00 +20°C° 0.6 mm 4 mps 748 mmHg 81%

    30 May, Thursday

    Time Temperature Precipitation Wind Pressure Humidity
    00:00 +20°C° 0.1 mm 4 mps 748 mmHg 83%
    01:00 +19°C° 0.1 mm 4 mps 748 mmHg 85%
    02:00 +19°C° 0.1 mm 3 mps 747 mmHg 87%
    03:00 +19°C° 0 mm 4 mps 747 mmHg 87%
    04:00 +18°C° 0 mm 4 mps 747 mmHg 88%
    05:00 +18°C° 0 mm 4 mps 747 mmHg 88%
    06:00 +19°C° 0 mm 4 mps 747 mmHg 84%
    07:00 +21°C° 0 mm 4 mps 747 mmHg 80%
    08:00 +22°C° 0 mm 5 mps 747 mmHg 76%
    09:00 +23°C° 0 mm 5 mps 747 mmHg 71%
    10:00 +26°C° 0 mm 5 mps 747 mmHg 67%
    11:00 +27°C° 0 mm 6 mps 747 mmHg 63%
    12:00 +27°C° 0.5 mm 6 mps 747 mmHg 61%
    13:00 +28°C° 0.5 mm 6 mps 747 mmHg 60%
    14:00 +28°C° 0.5 mm 6 mps 747 mmHg 59%
    15:00 +27°C° 0.6 mm 5 mps 747 mmHg 63%
    16:00 +26°C° 0.6 mm 4 mps 747 mmHg 68%
    17:00 +26°C° 0.6 mm 3 mps 747 mmHg 72%
    18:00 +24°C° 0.3 mm 3 mps 747 mmHg 77%
    19:00 +23°C° 0.3 mm 2 mps 747 mmHg 82%
    20:00 +21°C° 0.3 mm 1 mps 748 mmHg 86%
    21:00 +20°C° 0.2 mm 2 mps 748 mmHg 89%
    22:00 +19°C° 0.2 mm 2 mps 748 mmHg 91%
    23:00 +19°C° 0.2 mm 2 mps 749 mmHg 94%

    31 May, Friday

    Time Temperature Precipitation Wind Pressure Humidity
    00:00 +18°C° 0.1 mm 3 mps 749 mmHg 94%
    01:00 +17°C° 0.1 mm 3 mps 749 mmHg 95%
    02:00 +15°C° 0.1 mm 4 mps 749 mmHg 95%
    03:00 +14°C° 0.5 mm 4 mps 750 mmHg 95%
    04:00 +14°C° 0.5 mm 4 mps 750 mmHg 94%
    05:00 +13°C° 0.5 mm 4 mps 750 mmHg 94%
    06:00 +13°C° 0.1 mm 4 mps 751 mmHg 92%
    07:00 +12°C° 0.1 mm 4 mps 751 mmHg 91%
    08:00 +12°C° 0.1 mm 4 mps 751 mmHg 89%
    09:00 +13°C° 0.2 mm 4 mps 752 mmHg 87%
    10:00 +13°C° 0.2 mm 4 mps 752 mmHg 86%
    11:00 +14°C° 0.2 mm 4 mps 752 mmHg 84%
    12:00 +15°C° 0 mm 5 mps 752 mmHg 79%
    13:00 +16°C° 0 mm 5 mps 753 mmHg 75%
    14:00 +17°C° 0 mm 5 mps 753 mmHg 70%
    15:00 +17°C° 0 mm 5 mps 753 mmHg 69%
    16:00 +17°C° 0 mm 5 mps 753 mmHg 67%
    17:00 +19°C° 0 mm 5 mps 754 mmHg 66%
    18:00 +16°C° 0 mm 5 mps 754 mmHg 69%
    19:00 +15°C° 0 mm 4 mps 754 mmHg 73%
    20:00 +14°C° 0 mm 3 mps 755 mmHg 76%
    21:00 +13°C° 0 mm 3 mps 755 mmHg 77%
    22:00 +13°C° 0 mm 3 mps 755 mmHg 78%
    23:00 +12°C° 0 mm 3 mps 755 mmHg 80%
    Show more